User: anonymous   Login
Location: Caltech
(34.1382°N, 118.1253°W)
Time: 15:05:46
(UTC-08:00)
Language:

Cosmos 1975 - Orbit

View from above orbital plane
View from above orbital plane
View from above satellite
View from above satellite

Ground track
Ground track

The orbit data is extracted from the following two-line orbital elements,

1 19573U 88093A   14350.84703243  .00008266  00000-0  63583-3 0  3890
2 19573 082.5204 147.9014 0015438 160.6165 199.5650 15.01482539422595
Epoch (UTC): 16 December 2014 20:19:43
Eccentricity: 0.0015438
inclination: 82.5204°
perigee height: 551 km
apogee height: 573 km
right ascension of ascending node: 147.9014°
argument of perigee: 160.6165°
revolutions per day: 15.01482539
mean anomaly at epoch: 199.5650°
orbit number at epoch: 42259

The dashed part of the orbit path shows where the satellite is in the earth's shadow,  

DLR